This demonstration page uses our WeatherBlox Daily Observations layout. Learn more.

Left ArrowRight Arrow

40.92945, -100.16068

Hourly Observations for May 5, 2015

Temp ( °F °C ) Dew Point ( °F °C ) Humidity (%) Winds ( mph kmh ) Pressure ( in mb ) Visibility ( mi km ) Precip ( " mm )
12:15 am 00:15 Cloudy with Fog 54 12.1 53 11.5 96 96 ESE 5 7 30.06 1018 0.5 0.80467 N/A
12:35 am 00:35 Cloudy with Fog 54 12.1 53 11.5 96 96 E 6 9 30.06 1018 0.5 0.80467 N/A
12:55 am 00:55 Cloudy with Fog 54 12.1 53 11.5 96 96 E 5 7 30.06 1018 0.25 0.402335 N/A
1:15 am 01:15 Cloudy with Fog 54 12 53 11.5 97 97 E 6 9 30.06 1018 0.25 0.402335 N/A
1:35 am 01:35 Cloudy with Fog 54 12 53 11.4 96 96 ENE 6 9 30.03 1017 0.5 0.80467 N/A
1:55 am 01:55 Cloudy with Fog 54 12 53 11.5 97 97 E 6 9 30.03 1017 0.5 0.80467 N/A
2:15 am 02:15 Cloudy with Fog 54 12.1 53 11.6 97 97 ENE 6 9 30.03 1017 0.5 0.80467 N/A
2:35 am 02:35 Cloudy with Fog 54 12.1 53 11.6 97 97 E 5 7 30.03 1017 0.5 0.80467 N/A
2:55 am 02:55 Cloudy with Fog 54 12.1 53 11.6 97 97 ESE 5 7 30.03 1017 0.5 0.80467 N/A
3:15 am 03:15 Cloudy with Fog 54 12.3 53 11.8 97 97 E 3 6 30.03 1017 0.5 0.80467 N/A
3:35 am 03:35 Cloudy with Fog 54 12.3 53 11.8 97 97 E 3 6 30.03 1017 0.5 0.80467 N/A
3:55 am 03:55 Cloudy with Fog 55 12.5 54 12 97 97 E 5 7 30.03 1017 0.25 0.402335 N/A
4:15 am 04:15 Cloudy with Fog 54 12.3 53 11.8 97 97 E 3 6 30.03 1017 0.5 0.80467 N/A
4:35 am 04:35 Cloudy with Rain 55 12.5 54 12 97 97 E 3 6 30.03 1017 1 1.60934 N/A
4:55 am 04:55 Cloudy with Drizzle 55 12.5 54 12 97 97 N N/A 30.03 1017 1.25 2.011675 N/A
5:15 am 05:15 Cloudy with Mist and Fog 55 12.5 54 12 97 97 ENE 5 7 30.03 1017 1 1.60934 N/A
5:35 am 05:35 Cloudy with Mist and Fog 55 12.5 54 12 97 97 ENE 3 6 30.03 1017 1 1.60934 N/A
5:55 am 05:55 Cloudy with Mist and Fog 55 12.5 54 12 97 97 NE 3 6 30.03 1017 1 1.60934 N/A
6:15 am 06:15 Cloudy with Mist and Fog 55 12.5 54 12 97 97 ENE 3 6 30.03 1017 0.75 1.207005 0.01 0.254
6:35 am 06:35 Cloudy with Fog 55 12.5 54 12 97 97 NNE 5 7 30.03 1017 0.5 0.80467 0.01 0.254
6:55 am 06:55 Cloudy with Fog 55 12.6 54 12.1 97 97 NE 3 6 30.03 1017 0.25 0.402335 0.01 0.254
7:15 am 07:15 Cloudy with Fog 55 12.7 54 12.2 97 97 N N/A 30.03 1017 0.25 0.402335 N/A
7:35 am 07:35 Cloudy with Fog 55 12.8 54 12.3 97 97 ESE 5 7 30.03 1017 0.25 0.402335 N/A
7:55 am 07:55 Cloudy with Fog 55 12.8 54 12.3 97 97 E 5 7 30.03 1017 0.25 0.402335 N/A
8:15 am 08:15 Cloudy with Fog 55 12.9 55 12.5 97 97 ESE 6 9 30.03 1017 5 8.0467 N/A
8:35 am 08:35 Cloudy with Fog 56 13.1 55 12.7 97 97 E 7 11 30.03 1017 5 8.0467 N/A
8:55 am 08:55 Cloudy with Fog 56 13.5 56 13.1 97 97 E 7 11 30 1016 0.25 0.402335 N/A
9:15 am 09:15 Cloudy with Fog 57 13.7 56 13.3 97 97 E 7 11 30 1016 0.25 0.402335 N/A
9:35 am 09:35 Cloudy with Mist and Fog 57 14.1 57 13.7 97 97 E 5 7 30 1016 1 1.60934 N/A
9:55 am 09:55 Cloudy with Mist and Fog 58 14.7 58 14.3 97 97 E 6 9 30 1016 2.5 4.02335 N/A
10:15 am 10:15 Cloudy with Mist and Fog 59 15.1 58 14.7 97 97 E 5 7 30 1016 3 4.82802 N/A
10:35 am 10:35 Cloudy with Mist and Fog 60 15.4 59 14.9 97 97 E 7 11 30 1016 3 4.82802 N/A
10:55 am 10:55 Cloudy with Mist and Fog 60 15.6 59 15.1 97 97 E 7 11 30 1016 4 6.43736 N/A
11:15 am 11:15 Cloudy with Mist and Fog 60 15.6 59 15 96 96 ESE 8 13 30 1016 5 8.0467 N/A
11:35 am 11:35 Cloudy with Mist and Fog 60 15.8 59 15.2 96 96 ESE 9 15 29.97 1015 5 8.0467 N/A
11:55 am 11:55 Cloudy with Mist and Fog 61 16 59 15.2 95 95 ESE 12 19 29.97 1015 5 8.0467 N/A
12:15 pm 12:15 Cloudy with Mist and Fog 61 16.2 60 15.5 96 96 E 10 17 29.97 1015 5 8.0467 N/A
12:35 pm 12:35 Cloudy with Mist and Fog 62 16.6 60 15.8 95 95 ESE 10 17 29.94 1014 5 8.0467 N/A
12:55 pm 12:55 Cloudy 64 17.5 61 16.3 93 93 ESE 12 19 29.94 1014 7 11.26538 N/A
1:15 pm 13:15 Cloudy 64 18 62 16.6 92 92 ESE 12 19 29.94 1014 7 11.26538 N/A
1:35 pm 13:35 Cloudy 66 19 63 17.1 89 89 ESE 13 20 29.91 1013 7 11.26538 N/A
1:55 pm 13:55 Cloudy 67 19.6 63 17.2 86 86 SE 13 20 29.88 1012 10 16.0934 N/A
2:15 pm 14:15 Mostly Cloudy 68 20.1 62 16.9 82 82 ESE 13 20 29.85 1011 10 16.0934 N/A
2:35 pm 14:35 Mostly Cloudy with Nearby Thunderstorms 69 20.7 61 15.9 74 74 SE 15 24 29.85 1011 10 16.0934 N/A
2:55 pm 14:55 Mostly Cloudy 69 20.8 61 16.1 75 75 SSE 15 24 29.85 1011 10 16.0934 N/A
3:15 pm 15:15 Mostly Cloudy 70 21.1 58 14.7 67 67 SE 20 31 29.83 1010 10 16.0934 N/A
3:35 pm 15:35 Cloudy with Rain 68 20 57 14.1 69 69 SSE 16 26 29.85 1011 10 16.0934 N/A
3:55 pm 15:55 Cloudy with Light Rain 65 18.3 60 15.4 83 83 S 18 30 29.88 1012 10 16.0934 N/A
4:15 pm 16:15 Cloudy with Heavy Rain 60 15.8 55 12.8 82 82 SSE 10 17 29.85 1011 5 8.0467 0.04 1.016
4:35 pm 16:35 Cloudy with Rain 60 15.8 58 14.7 93 93 SSE 13 20 29.85 1011 7 11.26538 0.05 1.27
4:55 pm 16:55 Mostly Cloudy 63 17 60 15.7 92 92 SSE 8 13 29.85 1011 10 16.0934 0.05 1.27
5:15 pm 17:15 Partly Cloudy 64 17.9 61 15.9 88 88 SSE 8 13 29.85 1011 10 16.0934 N/A
5:35 pm 17:35 Partly Cloudy 65 18.4 61 16 86 86 SSE 8 13 29.85 1011 10 16.0934 N/A
5:55 pm 17:55 Mostly Cloudy 66 18.7 60 15.3 81 81 SSE 8 13 29.83 1010 10 16.0934 N/A
6:15 pm 18:15 Mostly Cloudy 66 18.9 59 14.8 77 77 SSE 12 19 29.8 1009 10 16.0934 N/A
6:35 pm 18:35 Mostly Cloudy 66 18.7 58 14.3 76 76 SE 9 15 29.8 1009 10 16.0934 N/A
6:55 pm 18:55 Cloudy 65 18.2 54 12.2 68 68 SE 23 37 29.85 1011 10 16.0934 N/A
7:15 pm 19:15 Cloudy 62 16.7 54 12.4 76 76 SSE 23 37 29.85 1011 10 16.0934 N/A
7:35 pm 19:35 Cloudy with Rain 60 15.8 55 12.5 81 81 SSE 15 24 29.85 1011 10 16.0934 N/A
7:55 pm 19:55 Cloudy with Drizzle 60 15.4 55 12.6 84 84 SSE 15 24 29.88 1012 10 16.0934 N/A
8:15 pm 20:15 Cloudy with Drizzle 59 15 53 11.5 80 80 SSE 15 24 29.88 1012 10 16.0934 N/A
8:35 pm 20:35 Cloudy with Drizzle 59 14.9 51 10.8 77 77 SE 9 15 29.88 1012 10 16.0934 N/A
8:55 pm 20:55 Cloudy with Light Rain 58 14.3 53 11.6 84 84 ESE 8 13 29.85 1011 10 16.0934 0.01 0.254
9:15 pm 21:15 Cloudy with Light Rain 58 14.4 54 12.2 87 87 SE 9 15 29.88 1012 10 16.0934 N/A
9:35 pm 21:35 Cloudy with Rain 58 14.5 55 12.7 89 89 SE 13 20 29.88 1012 7 11.26538 0.01 0.254
9:55 pm 21:55 Cloudy with Light Rain 58 14.3 55 13 92 92 SE 15 24 29.88 1012 7 11.26538 0.02 0.508
10:15 pm 22:15 Cloudy with Light Rain 57 14.1 55 12.7 91 91 ESE 16 26 29.85 1011 5 8.0467 N/A
10:35 pm 22:35 Cloudy with Light Rain 56 13.6 55 12.5 93 93 ESE 16 26 29.85 1011 7 11.26538 0.01 0.254
10:55 pm 22:55 Cloudy with Light Rain 57 14 55 12.8 93 93 ESE 16 26 29.85 1011 5 8.0467 0.01 0.254
11:15 pm 23:15 Cloudy with Rain 57 14 55 13 94 94 ESE 16 26 29.83 1010 3 4.82802 0.05 1.27
11:35 pm 23:35 Cloudy with Light Rain 57 14.1 56 13.2 94 94 SE 16 26 29.83 1010 5 8.0467 0.05 1.27
11:55 pm 23:55 Cloudy with Mist and Fog 58 14.3 56 13.5 95 95 SE 15 24 29.83 1010 5 8.0467 0.05 1.27

Powered by AerisWeather